Weather History for KAJZ - April, 2014

Change the Weather History Date:

Friday, April 11, 2014

  Actual Average (KMTJ) Record (KMTJ)
Temperature  
Mean Temperature 58 °F 48 °F  
Max Temperature 79 °F 61 °F 80 °F (2012)
Min Temperature 38 °F 34 °F 19 °F (1997)
Degree Days  
Heating Degree Days 6 17  
Month to date heating degree days 205  
Since 1 July heating degree days 5661  
Cooling Degree Days 0 0  
Month to date cooling degree days 0  
Year to date cooling degree days 0  
Growing Degree Days 8 (Base 50)    
Moisture  
Dew Point 19 °F    
Average Humidity 24    
Maximum Humidity 52    
Minimum Humidity 9    
Precipitation  
Precipitation 0.00 in 0.03 in 0.30 in (2002)
Month to date precipitation 0.35  
Year to date precipitation 2.60  
Sea Level Pressure  
Sea Level Pressure 30.02 in    
Wind  
Wind Speed 4 mph (NE)    
Max Wind Speed 17 mph    
Max Gust Speed 23 mph    
Visibility 10 miles    
Events      
T = Trace of Precipitation, MM = Missing Value Source: NWS Daily Summary

Daily Weather History Graph

Daily Weather History Graph

Search for Another Location

Airport or City:

Trip Planner

Search our weather history database for the weather conditions in past years. The results will help you decide how hot, cold, wet, or windy it might be!

Date:

Astronomy

Apr. 11, 2014 Rise Set
Actual Time 6:41 AM MDT 7:45 PM MDT
Civil Twilight 6:14 AM MDT 8:12 PM MDT
Nautical Twilight 5:41 AM MDT 8:45 PM MDT
Astronomical Twilight 5:08 AM MDT 9:19 PM MDT
Moon 4:30 PM MDT (4/11) 4:36 AM MDT (4/11)
Length of Visible Light 13h 58m
Length of Day
13h 03m
Waxing Gibbous, 87% of the Moon is Illuminated
Apr 11
Waxing Gibbous
Apr 15
Full
Apr 22
Last Quarter
Apr 29
New
May 6
First Quarter

Hourly Weather History & Observations

Time (MDT) Temp. Windchill Dew Point Humidity Pressure Visibility Wind Dir Wind Speed Gust Speed Precip Events Conditions
12:15 AM 49.1 °F - 20.1 °F 32% 30.06 in 10.0 mi Calm Calm - N/A   Clear
12:35 AM 51.3 °F - 16.3 °F 25% 30.07 in 10.0 mi East 4.6 mph - N/A   Clear
12:55 AM 46.9 °F - 17.8 °F 31% 30.08 in 10.0 mi Calm Calm - N/A   Clear
1:15 AM 45.3 °F 44.0 °F 19.4 °F 36% 30.08 in 10.0 mi NE 3.5 mph - N/A   Clear
1:35 AM 44.8 °F 42.4 °F 24.6 °F 45% 30.09 in 10.0 mi NNE 4.6 mph - N/A   Clear
1:55 AM 45.9 °F 43.6 °F 25.0 °F 44% 30.10 in 10.0 mi NNE 4.6 mph - N/A   Clear
2:15 AM 45.9 °F 44.6 °F 25.3 °F 45% 30.09 in 10.0 mi ENE 3.5 mph - N/A   Clear
2:35 AM 45.9 °F 43.6 °F 23.9 °F 42% 30.09 in 10.0 mi NE 4.6 mph - N/A   Clear
2:55 AM 42.6 °F 40.9 °F 20.5 °F 41% 30.10 in 10.0 mi East 3.5 mph - N/A   Clear
3:15 AM 41.5 °F 37.1 °F 18.1 °F 39% 30.10 in 10.0 mi ENE 6.9 mph - N/A   Clear
3:35 AM 41.4 °F 38.4 °F 22.1 °F 46% 30.10 in 10.0 mi NE 4.6 mph - N/A   Clear
3:55 AM 43.7 °F 40.3 °F 22.5 °F 43% 30.10 in 10.0 mi ENE 5.8 mph - N/A   Clear
4:15 AM 42.1 °F 39.2 °F 19.6 °F 41% 30.11 in 10.0 mi ENE 4.6 mph - N/A   Clear
4:35 AM 42.3 °F 39.4 °F 19.9 °F 41% 30.11 in 10.0 mi ENE 4.6 mph - N/A   Clear
4:55 AM 43.0 °F 38.8 °F 19.9 °F 40% 30.11 in 10.0 mi ENE 6.9 mph - N/A   Clear
5:15 AM 41.5 °F 38.6 °F 20.8 °F 44% 30.11 in 10.0 mi East 4.6 mph - N/A   Clear
5:35 AM 40.3 °F - 20.3 °F 45% 30.11 in 10.0 mi Calm Calm - N/A   Clear
5:55 AM 38.3 °F 35.9 °F 21.2 °F 50% 30.12 in 10.0 mi ENE 3.5 mph - N/A   Clear
6:15 AM 39.2 °F 35.9 °F 22.8 °F 52% 30.13 in 10.0 mi NNE 4.6 mph - N/A   Clear
6:55 AM 40.6 °F - 22.6 °F 49% 30.13 in 10.0 mi Calm Calm - N/A   Clear
7:15 AM 41.2 °F 39.2 °F 21.9 °F 46% 30.14 in 10.0 mi East 3.5 mph - N/A   Clear
7:35 AM 42.4 °F 39.6 °F 20.8 °F 42% 30.14 in 10.0 mi NE 4.6 mph - N/A   Clear
7:55 AM 46.0 °F 42.5 °F 21.2 °F 37% 30.15 in 10.0 mi NE 6.9 mph - N/A   Clear
8:15 AM 48.0 °F - 23.0 °F 37% 30.15 in 10.0 mi East 8.1 mph - N/A   Clear
8:35 AM 50.5 °F - 23.2 °F 34% 30.15 in 10.0 mi East 6.9 mph - N/A   Clear
8:55 AM 52.9 °F - 23.5 °F 32% 30.14 in 10.0 mi East 4.6 mph - N/A   Clear
9:15 AM 54.3 °F - 24.3 °F 31% 30.14 in 10.0 mi ESE 3.5 mph - N/A   Clear
9:35 AM 55.4 °F - 24.6 °F 30% 30.13 in 10.0 mi Calm Calm - N/A   Clear
9:55 AM 57.6 °F - 25.0 °F 29% 30.13 in 10.0 mi Calm Calm - N/A   Clear
10:15 AM 59.2 °F - 22.6 °F 25% 30.13 in 10.0 mi ENE 4.6 mph - N/A   Clear
10:35 AM 61.5 °F - 23.0 °F 23% 30.12 in 10.0 mi Calm Calm - N/A   Clear
10:55 AM 63.9 °F - 22.3 °F 20% 30.11 in 10.0 mi East 3.5 mph - N/A   Clear
11:15 AM 67.1 °F - 19.0 °F 16% 30.10 in 7.0 mi East 3.5 mph - N/A   Clear
11:35 AM 67.3 °F - 20.5 °F 17% 30.09 in 10.0 mi Calm Calm - N/A   Clear
11:55 AM 70.0 °F - 20.1 °F 15% 30.08 in 10.0 mi North 3.5 mph - N/A   Clear
12:15 PM 71.6 °F - 17.8 °F 13% 30.06 in 10.0 mi ESE 4.6 mph - N/A   Clear
12:35 PM 72.1 °F - 19.4 °F 14% 30.04 in 10.0 mi East 3.5 mph - N/A   Clear
12:55 PM 73.0 °F - 18.7 °F 13% 30.03 in 10.0 mi Calm Calm - N/A   Clear
1:15 PM 75.2 °F - 19.0 °F 12% 30.02 in 10.0 mi Calm Calm - N/A   Clear
1:35 PM 76.1 °F - 19.0 °F 12% 30.01 in 10.0 mi NNE 3.5 mph - N/A   Clear
1:55 PM 76.3 °F - 17.4 °F 11% 29.99 in 10.0 mi NNE 4.6 mph - N/A   Clear
2:15 PM 77.4 °F - 16.5 °F 10% 29.98 in 10.0 mi NNW 6.9 mph - N/A   Clear
2:35 PM 77.7 °F - 16.2 °F 10% 29.97 in 10.0 mi South 3.5 mph - N/A   Clear
2:55 PM 78.8 °F - 16.9 °F 10% 29.96 in 10.0 mi WSW 4.6 mph - N/A   Clear
3:15 PM 79.0 °F - 17.1 °F 10% 29.94 in 10.0 mi SSW 5.8 mph - N/A   Clear
3:35 PM 79.7 °F - 16.9 °F 10% 29.93 in 10.0 mi SSW 11.5 mph - N/A   Clear
3:55 PM 79.3 °F - 16.3 °F 9% 29.93 in 10.0 mi West 5.8 mph 16.1 mph N/A   Clear
4:15 PM 78.4 °F - 16.2 °F 10% 29.91 in 10.0 mi SW 10.4 mph - N/A   Clear
4:35 PM 78.6 °F - 16.5 °F 10% 29.91 in 10.0 mi WNW 5.8 mph - N/A   Clear
4:55 PM 77.4 °F - 15.8 °F 10% 29.91 in 10.0 mi Calm Calm - N/A   Clear
5:15 PM 77.9 °F - 16.5 °F 10% 29.90 in 10.0 mi SW 3.5 mph - N/A   Clear
5:35 PM 78.1 °F - 16.2 °F 10% 29.90 in 10.0 mi WNW 8.1 mph - N/A   Clear
5:55 PM 77.4 °F - 16.7 °F 10% 29.90 in 10.0 mi West 8.1 mph - N/A   Clear
6:15 PM 76.5 °F - 14.9 °F 10% 29.90 in 10.0 mi West 17.3 mph 23.0 mph N/A   Clear
6:35 PM 75.7 °F - 14.5 °F 10% 29.90 in 10.0 mi West 3.5 mph - N/A   Clear
6:55 PM 75.2 °F - 14.0 °F 10% 29.90 in 10.0 mi NW 8.1 mph - N/A   Clear
7:15 PM 74.3 °F - 14.0 °F 10% 29.90 in 10.0 mi West 5.8 mph - N/A   Clear
7:35 PM 73.4 °F - 13.8 °F 10% 29.90 in 10.0 mi WSW 5.8 mph - N/A   Clear
7:55 PM 71.6 °F - 15.1 °F 12% 29.90 in 10.0 mi SW 4.6 mph - N/A   Scattered Clouds
8:15 PM 70.9 °F - 11.8 °F 10% 29.91 in 7.0 mi SW 15.0 mph 18.4 mph N/A   Scattered Clouds
8:35 PM 68.4 °F - 11.1 °F 11% 29.91 in 10.0 mi WSW 3.5 mph - N/A   Clear
8:55 PM 68.0 °F - 11.1 °F 11% 29.91 in 10.0 mi West 4.6 mph - N/A   Clear
9:15 PM 66.7 °F - 10.4 °F 11% 29.92 in 10.0 mi Calm Calm - N/A   Clear
9:35 PM 66.0 °F - 10.8 °F 12% 29.92 in 10.0 mi Calm Calm - N/A   Clear
9:55 PM 65.5 °F - 11.1 °F 12% 29.92 in 10.0 mi Calm Calm - N/A   Clear
10:15 PM 59.2 °F - 12.7 °F 16% 29.92 in 10.0 mi NE 5.8 mph - N/A   Clear
10:35 PM 60.1 °F - 15.1 °F 17% 29.92 in 10.0 mi NNE 6.9 mph - N/A   Clear
10:55 PM 57.9 °F - 18.1 °F 21% 29.92 in 10.0 mi NNE 5.8 mph - N/A   Clear
11:15 PM 57.4 °F - 16.9 °F 21% 29.92 in 10.0 mi NNE 10.4 mph - N/A   Clear
11:35 PM 56.7 °F - 17.2 °F 21% 29.91 in 10.0 mi NNE 9.2 mph - N/A   Clear
11:55 PM 55.9 °F - 16.7 °F 21% 29.91 in 10.0 mi NNE 10.4 mph - N/A   Clear